Tabellarische Ansicht des 7.11.2020


Die einzelnen Werte des Tages

Uhrzeit Temperatur Luftdruck Luftfeuchte Wind Hi-Wind Taupunkt THW Index Wind Chill Heat Index Solar- strahlung Regen

00:00

4.5 C

1025.9 hpa

91 %

1.6 km/h aus 114

3.2 km/h aus ENE

3.2 C

4.4 C

4.5 C

4.4 C

0 W/m

0.00 mm

00:05

4.4 C

1025.9 hpa

91 %

0.0 km/h aus 114

3.2 km/h aus ENE

3.1 C

4.4 C

4.4 C

4.4 C

0 W/m

0.00 mm

00:10

4.4 C

1025.9 hpa

91 %

0.0 km/h aus 117

3.2 km/h aus ENE

3.0 C

4.3 C

4.4 C

4.3 C

0 W/m

0.00 mm

00:15

4.3 C

1025.6 hpa

91 %

0.0 km/h aus 117

0.0 km/h aus ---

3.0 C

4.3 C

4.3 C

4.3 C

0 W/m

0.00 mm

00:20

4.3 C

1025.6 hpa

91 %

0.0 km/h aus 117

0.0 km/h aus ---

2.9 C

4.2 C

4.3 C

4.2 C

0 W/m

0.00 mm

00:25

4.2 C

1025.6 hpa

91 %

0.0 km/h aus 117

0.0 km/h aus ---

2.9 C

4.2 C

4.2 C

4.2 C

0 W/m

0.00 mm

00:30

4.2 C

1025.5 hpa

91 %

0.0 km/h aus 115

0.0 km/h aus ---

2.8 C

4.1 C

4.2 C

4.1 C

0 W/m

0.00 mm

00:35

4.1 C

1025.5 hpa

91 %

0.0 km/h aus 112

0.0 km/h aus ---

2.8 C

4.1 C

4.1 C

4.1 C

0 W/m

0.00 mm

00:40

4.1 C

1025.5 hpa

91 %

0.0 km/h aus 116

1.6 km/h aus NE

2.7 C

4.0 C

4.1 C

4.0 C

0 W/m

0.00 mm

00:45

4.1 C

1025.4 hpa

92 %

0.0 km/h aus 116

3.2 km/h aus NE

2.9 C

4.1 C

4.1 C

4.1 C

0 W/m

0.00 mm

00:50

3.9 C

1025.4 hpa

91 %

0.0 km/h aus 114

3.2 km/h aus NE

2.6 C

3.9 C

3.9 C

3.9 C

0 W/m

0.00 mm

00:55

3.9 C

1025.4 hpa

91 %

0.0 km/h aus 117

3.2 km/h aus ENE

2.6 C

3.8 C

3.9 C

3.8 C

0 W/m

0.00 mm

01:00

3.8 C

1025.4 hpa

91 %

0.0 km/h aus 117

0.0 km/h aus ---

2.4 C

3.7 C

3.8 C

3.7 C

0 W/m

0.00 mm

01:05

3.7 C

1025.4 hpa

91 %

0.0 km/h aus 118

0.0 km/h aus ---

2.4 C

3.7 C

3.7 C

3.7 C

0 W/m

0.00 mm

01:10

3.6 C

1025.4 hpa

91 %

0.0 km/h aus 114

1.6 km/h aus ENE

2.3 C

3.6 C

3.6 C

3.6 C

0 W/m

0.00 mm

01:15

3.5 C

1025.2 hpa

91 %

0.0 km/h aus 115

0.0 km/h aus ---

2.2 C

3.4 C

3.5 C

3.4 C

0 W/m

0.00 mm

01:20

3.4 C

1025.2 hpa

91 %

0.0 km/h aus 117

0.0 km/h aus ---

2.1 C

3.3 C

3.4 C

3.3 C

0 W/m

0.00 mm

01:25

3.3 C

1025.2 hpa

91 %

1.6 km/h aus 117

4.8 km/h aus ENE

2.0 C

3.3 C

3.3 C

3.3 C

0 W/m

0.00 mm

01:30

3.3 C

1025.2 hpa

91 %

0.0 km/h aus 117

0.0 km/h aus ---

1.9 C

3.2 C

3.3 C

3.2 C

0 W/m

0.00 mm

01:35

3.3 C

1025.2 hpa

91 %

1.6 km/h aus 117

3.2 km/h aus NE

1.9 C

3.2 C

3.3 C

3.2 C

0 W/m

0.00 mm

01:40

3.3 C

1025.2 hpa

92 %

0.0 km/h aus 117

1.6 km/h aus NE

2.1 C

3.2 C

3.3 C

3.2 C

0 W/m

0.00 mm

01:45

3.2 C

1025.0 hpa

92 %

1.6 km/h aus 115

4.8 km/h aus NE

2.0 C

3.2 C

3.2 C

3.2 C

0 W/m

0.00 mm

01:50

3.2 C

1025.0 hpa

92 %

0.0 km/h aus 114

3.2 km/h aus NE

2.0 C

3.2 C

3.2 C

3.2 C

0 W/m

0.25 mm

01:55

3.2 C

1025.0 hpa

92 %

0.0 km/h aus 116

3.2 km/h aus NE

2.0 C

3.2 C

3.2 C

3.2 C

0 W/m

0.00 mm

02:00

3.2 C

1024.9 hpa

92 %

3.2 km/h aus 117

4.8 km/h aus NE

2.0 C

2.8 C

2.9 C

3.1 C

0 W/m

0.00 mm

02:05

3.2 C

1024.9 hpa

92 %

3.2 km/h aus 116

6.4 km/h aus NE

2.0 C

2.9 C

2.9 C

3.2 C

0 W/m

0.00 mm

02:10

3.4 C

1024.9 hpa

92 %

3.2 km/h aus 118

8.0 km/h aus E

2.2 C

3.1 C

3.2 C

3.3 C

0 W/m

0.00 mm

02:15

3.6 C

1024.6 hpa

92 %

3.2 km/h aus 117

6.4 km/h aus ENE

2.4 C

3.3 C

3.3 C

3.5 C

0 W/m

0.00 mm

02:20

3.6 C

1024.6 hpa

93 %

1.6 km/h aus 115

6.4 km/h aus ENE

2.6 C

3.6 C

3.6 C

3.6 C

0 W/m

0.00 mm

02:25

3.7 C

1024.6 hpa

93 %

1.6 km/h aus 113

4.8 km/h aus ENE

2.6 C

3.7 C

3.7 C

3.7 C

0 W/m

0.00 mm

02:30

3.7 C

1024.5 hpa

93 %

1.6 km/h aus 115

4.8 km/h aus ENE

2.7 C

3.7 C

3.7 C

3.7 C

0 W/m

0.00 mm

02:35

3.7 C

1024.5 hpa

93 %

4.8 km/h aus 117

8.0 km/h aus NE

2.7 C

2.7 C

2.7 C

3.7 C

0 W/m

0.00 mm

02:40

3.7 C

1024.5 hpa

93 %

1.6 km/h aus 116

3.2 km/h aus NNE

2.7 C

3.7 C

3.7 C

3.7 C

0 W/m

0.00 mm

02:45

3.7 C

1024.4 hpa

93 %

0.0 km/h aus 117

1.6 km/h aus NNE

2.7 C

3.7 C

3.7 C

3.7 C

0 W/m

0.00 mm

02:50

3.7 C

1024.4 hpa

93 %

0.0 km/h aus 117

0.0 km/h aus ---

2.6 C

3.7 C

3.7 C

3.7 C

0 W/m

0.00 mm

02:55

3.6 C

1024.4 hpa

93 %

0.0 km/h aus 116

3.2 km/h aus NNE

2.6 C

3.6 C

3.6 C

3.6 C

0 W/m

0.00 mm

03:00

3.5 C

1024.4 hpa

93 %

0.0 km/h aus 113

1.6 km/h aus NNE

2.5 C

3.5 C

3.5 C

3.5 C

0 W/m

0.00 mm

03:05

3.4 C

1024.4 hpa

92 %

0.0 km/h aus 114

1.6 km/h aus NNE

2.3 C

3.4 C

3.4 C

3.4 C

0 W/m

0.00 mm

03:10

3.3 C

1024.4 hpa

92 %

3.2 km/h aus 117

6.4 km/h aus NNE

2.2 C

3.1 C

3.1 C

3.3 C

0 W/m

0.00 mm

03:15

3.3 C

1024.1 hpa

92 %

1.6 km/h aus 118

6.4 km/h aus NNE

2.1 C

3.2 C

3.3 C

3.2 C

0 W/m

0.00 mm

03:20

3.2 C

1024.1 hpa

92 %

0.0 km/h aus 117

3.2 km/h aus NNE

2.0 C

3.2 C

3.2 C

3.2 C

0 W/m

0.00 mm

03:25

3.2 C

1024.1 hpa

92 %

0.0 km/h aus 117

0.0 km/h aus ---

2.0 C

3.1 C

3.2 C

3.1 C

0 W/m

0.00 mm

03:30

3.1 C

1023.9 hpa

92 %

0.0 km/h aus 117

0.0 km/h aus ---

1.9 C

3.1 C

3.1 C

3.1 C

0 W/m

0.00 mm

03:35

3.1 C

1023.9 hpa

93 %

0.0 km/h aus 115

0.0 km/h aus ---

2.1 C

3.1 C

3.1 C

3.1 C

0 W/m

0.00 mm

03:40

3.1 C

1023.9 hpa

93 %

0.0 km/h aus 112

0.0 km/h aus ---

2.0 C

3.1 C

3.1 C

3.1 C

0 W/m

0.00 mm

03:45

3.1 C

1023.8 hpa

93 %

0.0 km/h aus 116

3.2 km/h aus NNE

2.0 C

3.1 C

3.1 C

3.1 C

0 W/m

0.00 mm

03:50

3.0 C

1023.8 hpa

93 %

1.6 km/h aus 116

6.4 km/h aus NNE

2.0 C

3.0 C

3.0 C

3.0 C

0 W/m

0.00 mm

03:55

2.9 C

1023.8 hpa

93 %

3.2 km/h aus 116

6.4 km/h aus NNE

1.9 C

2.7 C

2.7 C

2.9 C

0 W/m

0.00 mm

04:00

2.9 C

1023.4 hpa

93 %

1.6 km/h aus 116

4.8 km/h aus NNE

1.9 C

2.9 C

2.9 C

2.9 C

0 W/m

0.00 mm

04:05

2.9 C

1023.4 hpa

93 %

1.6 km/h aus 117

3.2 km/h aus NE

1.9 C

2.9 C

2.9 C

2.9 C

0 W/m

0.00 mm

04:10

2.9 C

1023.4 hpa

93 %

1.6 km/h aus 116

6.4 km/h aus NE

1.9 C

2.9 C

2.9 C

2.9 C

0 W/m

0.00 mm

04:15

2.9 C

1023.4 hpa

93 %

3.2 km/h aus 114

8.0 km/h aus ENE

1.9 C

2.7 C

2.7 C

2.9 C

0 W/m

0.00 mm

04:20

3.0 C

1023.4 hpa

93 %

3.2 km/h aus 114

8.0 km/h aus NE

2.0 C

2.7 C

2.7 C

3.0 C

0 W/m

0.00 mm

04:25

3.1 C

1023.4 hpa

93 %

3.2 km/h aus 116

8.0 km/h aus NE

2.0 C

2.8 C

2.8 C

3.1 C

0 W/m

0.00 mm

04:30

3.1 C

1023.4 hpa

93 %

1.6 km/h aus 117

6.4 km/h aus NE

2.0 C

3.1 C

3.1 C

3.1 C

0 W/m

0.00 mm

04:35

3.2 C

1023.4 hpa

93 %

3.2 km/h aus 115

6.4 km/h aus NE

2.1 C

2.9 C

2.9 C

3.2 C

0 W/m

0.00 mm

04:40

3.3 C

1023.4 hpa

93 %

1.6 km/h aus 117

6.4 km/h aus ENE

2.3 C

3.3 C

3.3 C

3.3 C

0 W/m

0.00 mm

04:45

3.3 C

1023.2 hpa

93 %

1.6 km/h aus 117

8.0 km/h aus ENE

2.3 C

3.3 C

3.3 C

3.3 C

0 W/m

0.00 mm

04:50

3.4 C

1023.2 hpa

93 %

0.0 km/h aus 115

4.8 km/h aus ENE

2.4 C

3.4 C

3.4 C

3.4 C

0 W/m

0.00 mm

04:55

3.6 C

1023.2 hpa

94 %

0.0 km/h aus 114

3.2 km/h aus ENE

2.7 C

3.6 C

3.6 C

3.6 C

0 W/m

0.00 mm

05:00

3.7 C

1023.3 hpa

94 %

0.0 km/h aus 115

1.6 km/h aus ENE

2.8 C

3.7 C

3.7 C

3.7 C

0 W/m

0.00 mm

05:05

3.7 C

1023.3 hpa

94 %

0.0 km/h aus 116

0.0 km/h aus ---

2.8 C

3.7 C

3.7 C

3.7 C

0 W/m

0.00 mm

05:10

3.8 C

1023.3 hpa

93 %

0.0 km/h aus 117

0.0 km/h aus ---

2.7 C

3.8 C

3.8 C

3.8 C

0 W/m

0.00 mm

05:15

3.8 C

1023.3 hpa

93 %

0.0 km/h aus 114

0.0 km/h aus ---

2.7 C

3.8 C

3.8 C

3.8 C

0 W/m

0.00 mm

05:20

3.8 C

1023.3 hpa

93 %

4.8 km/h aus 117

11.3 km/h aus ESE

2.7 C

2.8 C

2.8 C

3.8 C

0 W/m

0.00 mm

05:25

3.7 C

1023.3 hpa

93 %

8.0 km/h aus 116

19.3 km/h aus ESE

2.7 C

1.6 C

1.6 C

3.7 C

0 W/m

0.00 mm

05:30

3.7 C

1023.1 hpa

93 %

6.4 km/h aus 114

17.7 km/h aus ESE

2.7 C

2.1 C

2.1 C

3.7 C

0 W/m

0.00 mm

05:35

3.7 C

1023.1 hpa

93 %

3.2 km/h aus 115

14.5 km/h aus SE

2.6 C

3.4 C

3.4 C

3.7 C

0 W/m

0.00 mm

05:40

3.7 C

1023.1 hpa

93 %

3.2 km/h aus 117

11.3 km/h aus ESE

2.6 C

3.4 C

3.4 C

3.7 C

0 W/m

0.00 mm

05:45

3.7 C

1023.1 hpa

93 %

3.2 km/h aus 117

9.7 km/h aus SE

2.6 C

3.4 C

3.4 C

3.7 C

0 W/m

0.00 mm

05:50

3.7 C

1023.1 hpa

93 %

1.6 km/h aus 117

4.8 km/h aus SE

2.6 C

3.7 C

3.7 C

3.7 C

0 W/m

0.00 mm

05:55

3.7 C

1023.1 hpa

93 %

1.6 km/h aus 116

9.7 km/h aus SSE

2.6 C

3.7 C

3.7 C

3.7 C

0 W/m

0.00 mm

06:00

3.7 C

1023.0 hpa

93 %

8.0 km/h aus 115

16.1 km/h aus SE

2.6 C

1.6 C

1.6 C

3.7 C

0 W/m

0.00 mm

06:05

3.7 C

1023.0 hpa

93 %

11.3 km/h aus 114

20.9 km/h aus SE

2.7 C

0.9 C

0.9 C

3.7 C

0 W/m

0.00 mm

06:10

3.8 C

1023.0 hpa

93 %

8.0 km/h aus 115

19.3 km/h aus SE

2.7 C

1.7 C

1.7 C

3.8 C

0 W/m

0.00 mm

06:15

3.8 C

1022.9 hpa

92 %

8.0 km/h aus 88

17.7 km/h aus SE

2.7 C

1.7 C

1.8 C

3.8 C

0 W/m

0.00 mm

06:20

3.9 C

1022.9 hpa

92 %

6.4 km/h aus 117

16.1 km/h aus SE

2.7 C

2.3 C

2.3 C

3.8 C

0 W/m

0.00 mm

06:25

3.9 C

1022.9 hpa

92 %

4.8 km/h aus 117

17.7 km/h aus SE

2.8 C

2.9 C

2.9 C

3.9 C

0 W/m

0.00 mm

06:30

4.0 C

1022.9 hpa

92 %

8.0 km/h aus 116

17.7 km/h aus SE

2.8 C

1.9 C

1.9 C

3.9 C

0 W/m

0.00 mm

06:35

4.1 C

1022.9 hpa

91 %

9.7 km/h aus 116

20.9 km/h aus SE

2.8 C

1.6 C

1.7 C

4.1 C

0 W/m

0.00 mm

06:40

4.3 C

1022.9 hpa

91 %

6.4 km/h aus 114

19.3 km/h aus SE

3.0 C

2.8 C

2.8 C

4.3 C

0 W/m

0.00 mm

06:45

4.5 C

1022.8 hpa

90 %

6.4 km/h aus 115

19.3 km/h aus ESE

3.0 C

2.9 C

3.0 C

4.4 C

0 W/m

0.00 mm

06:50

4.6 C

1022.8 hpa

90 %

3.2 km/h aus 116

16.1 km/h aus ESE

3.1 C

4.4 C

4.5 C

4.6 C

0 W/m

0.00 mm

06:55

4.7 C

1022.8 hpa

89 %

3.2 km/h aus 117

14.5 km/h aus SE

3.1 C

4.6 C

4.6 C

4.7 C

0 W/m

0.00 mm

07:00

4.8 C

1022.9 hpa

89 %

1.6 km/h aus 117

9.7 km/h aus SE

3.1 C

4.7 C

4.8 C

4.7 C

0 W/m

0.00 mm

07:05

4.8 C

1022.9 hpa

88 %

1.6 km/h aus 117

8.0 km/h aus ESE

3.0 C

4.8 C

4.8 C

4.8 C

0 W/m

0.00 mm

07:10

4.8 C

1022.9 hpa

88 %

3.2 km/h aus 116

16.1 km/h aus SE

3.0 C

4.7 C

4.8 C

4.8 C

0 W/m

0.00 mm

07:15

4.9 C

1022.9 hpa

87 %

3.2 km/h aus 114

11.3 km/h aus ESE

2.9 C

4.7 C

4.8 C

4.8 C

0 W/m

0.00 mm

07:20

4.9 C

1022.9 hpa

86 %

4.8 km/h aus 116

17.7 km/h aus SE

2.8 C

4.0 C

4.1 C

4.8 C

3 W/m

0.00 mm

07:25

5.0 C

1022.9 hpa

86 %

4.8 km/h aus 117

17.7 km/h aus SE

2.9 C

4.1 C

4.2 C

4.9 C

5 W/m

0.00 mm

07:30

5.1 C

1022.8 hpa

85 %

9.7 km/h aus 117

20.9 km/h aus ESE

2.7 C

2.7 C

2.8 C

4.9 C

7 W/m

0.00 mm

07:35

5.2 C

1022.8 hpa

84 %

11.3 km/h aus 117

20.9 km/h aus ESE

2.7 C

2.6 C

2.7 C

5.1 C

10 W/m

0.00 mm

07:40

5.4 C

1022.8 hpa

83 %

9.7 km/h aus 117

24.1 km/h aus SE

2.8 C

3.2 C

3.3 C

5.3 C

13 W/m

0.00 mm

07:45

5.6 C

1022.8 hpa

82 %

8.0 km/h aus 114

22.5 km/h aus SE

2.7 C

3.6 C

3.8 C

5.4 C

16 W/m

0.00 mm

07:50

5.7 C

1022.8 hpa

81 %

8.0 km/h aus 115

20.9 km/h aus SE

2.7 C

3.8 C

4.0 C

5.6 C

19 W/m

0.00 mm

07:55

5.8 C

1022.8 hpa

80 %

8.0 km/h aus 114

20.9 km/h aus SE

2.6 C

3.9 C

4.1 C

5.6 C

23 W/m

0.00 mm

08:00

6.0 C

1022.7 hpa

79 %

14.5 km/h aus 117

22.5 km/h aus ESE

2.6 C

2.8 C

3.0 C

5.8 C

29 W/m

0.00 mm

08:05

6.2 C

1022.7 hpa

78 %

12.9 km/h aus 115

22.5 km/h aus ESE

2.7 C

3.4 C

3.6 C

6.1 C

35 W/m

0.00 mm

08:10

6.4 C

1022.7 hpa

78 %

11.3 km/h aus 117

22.5 km/h aus SE

2.9 C

4.0 C

4.2 C

6.3 C

41 W/m

0.00 mm

08:15

6.6 C

1022.7 hpa

77 %

6.4 km/h aus 116

19.3 km/h aus ESE

2.9 C

5.3 C

5.4 C

6.4 C

49 W/m

0.00 mm

08:20

6.7 C

1022.7 hpa

77 %

6.4 km/h aus 114

20.9 km/h aus SE

3.0 C

5.4 C

5.6 C

6.6 C

56 W/m

0.00 mm

08:25

6.8 C

1022.7 hpa

76 %

8.0 km/h aus 115

19.3 km/h aus SE

2.9 C

5.1 C

5.3 C

6.6 C

61 W/m

0.00 mm

08:30

6.9 C

1022.4 hpa

75 %

6.4 km/h aus 117

20.9 km/h aus ESE

2.8 C

5.6 C

5.8 C

6.7 C

59 W/m

0.00 mm

08:35

7.2 C

1022.4 hpa

73 %

6.4 km/h aus 117

20.9 km/h aus E

2.6 C

5.9 C

6.1 C

6.9 C

77 W/m

0.00 mm

08:40

7.3 C

1022.4 hpa

72 %

1.6 km/h aus 115

8.0 km/h aus SE

2.6 C

7.1 C

7.3 C

7.1 C

83 W/m

0.00 mm

08:45

7.4 C

1022.4 hpa

72 %

3.2 km/h aus 117

12.9 km/h aus SE

2.7 C

7.2 C

7.4 C

7.2 C

89 W/m

0.00 mm

08:50

7.5 C

1022.4 hpa

73 %

1.6 km/h aus 113

14.5 km/h aus SE

3.0 C

7.3 C

7.5 C

7.3 C

97 W/m

0.00 mm

08:55

7.6 C

1022.4 hpa

73 %

3.2 km/h aus 116

16.1 km/h aus ESE

3.0 C

7.3 C

7.6 C

7.3 C

105 W/m

0.00 mm

09:00

7.7 C

1022.4 hpa

73 %

3.2 km/h aus 117

17.7 km/h aus ESE

3.1 C

7.4 C

7.7 C

7.4 C

115 W/m

0.00 mm

09:05

7.8 C

1022.4 hpa

73 %

4.8 km/h aus 117

16.1 km/h aus ESE

3.2 C

7.1 C

7.3 C

7.6 C

124 W/m

0.00 mm

09:10

8.0 C

1022.4 hpa

72 %

3.2 km/h aus 115

11.3 km/h aus SSE

3.3 C

7.8 C

8.0 C

7.8 C

131 W/m

0.00 mm

09:15

8.2 C

1022.4 hpa

73 %

4.8 km/h aus 114

16.1 km/h aus SE

3.6 C

7.6 C

7.8 C

7.9 C

137 W/m

0.00 mm

09:20

8.4 C

1022.4 hpa

72 %

6.4 km/h aus 114

19.3 km/h aus E

3.6 C

7.3 C

7.5 C

8.2 C

145 W/m

0.00 mm

09:25

8.5 C

1022.4 hpa

72 %

9.7 km/h aus 116

22.5 km/h aus ESE

3.7 C

6.7 C

6.9 C

8.3 C

154 W/m

0.00 mm

09:30

8.5 C

1022.4 hpa

73 %

12.9 km/h aus 116

25.7 km/h aus SE

3.9 C

6.1 C

6.3 C

8.3 C

165 W/m

0.00 mm

09:35

8.6 C

1022.4 hpa

72 %

11.3 km/h aus 116

25.7 km/h aus SE

3.8 C

6.6 C

6.8 C

8.4 C

177 W/m

0.00 mm

09:40

8.8 C

1022.4 hpa

72 %

6.4 km/h aus 114

20.9 km/h aus ESE

4.1 C

7.8 C

8.1 C

8.6 C

188 W/m

0.00 mm

09:45

9.0 C

1022.4 hpa

71 %

4.8 km/h aus 114

17.7 km/h aus ESE

4.0 C

8.4 C

8.7 C

8.8 C

198 W/m

0.00 mm

09:50

9.1 C

1022.4 hpa

71 %

4.8 km/h aus 118

17.7 km/h aus ESE

4.1 C

8.5 C

8.7 C

8.8 C

208 W/m

0.00 mm

09:55

9.2 C

1022.4 hpa

70 %

6.4 km/h aus 117

17.7 km/h aus ESE

4.0 C

8.2 C

8.4 C

8.9 C

217 W/m

0.00 mm

10:00

9.3 C

1022.4 hpa

71 %

4.8 km/h aus 117

17.7 km/h aus ESE

4.3 C

8.8 C

9.1 C

9.1 C

227 W/m

0.00 mm

10:05

9.4 C

1022.4 hpa

71 %

4.8 km/h aus 116

16.1 km/h aus SE

4.4 C

8.9 C

9.1 C

9.2 C

235 W/m

0.00 mm

10:10

9.5 C

1022.4 hpa

71 %

3.2 km/h aus 114

19.3 km/h aus SE

4.5 C

9.3 C

9.5 C

9.3 C

240 W/m

0.00 mm

10:15

9.5 C

1022.4 hpa

71 %

6.4 km/h aus 116

20.9 km/h aus SE

4.5 C

8.6 C

8.8 C

9.3 C

247 W/m

0.00 mm

10:20

9.6 C

1022.4 hpa

70 %

12.9 km/h aus 115

22.5 km/h aus SE

4.4 C

7.4 C

7.6 C

9.4 C

255 W/m

0.00 mm

10:25

9.7 C

1022.4 hpa

71 %

9.7 km/h aus 116

19.3 km/h aus SE

4.7 C

8.1 C

8.3 C

9.4 C

263 W/m

0.00 mm

10:30

9.8 C

1022.3 hpa

72 %

6.4 km/h aus 116

17.7 km/h aus ESE

5.0 C

9.0 C

9.2 C

9.7 C

270 W/m

0.00 mm

10:35

10.0 C

1022.3 hpa

73 %

6.4 km/h aus 115

19.3 km/h aus SE

5.4 C

9.2 C

9.4 C

9.8 C

275 W/m

0.00 mm

10:40

10.1 C

1022.3 hpa

71 %

8.0 km/h aus 116

19.3 km/h aus SE

5.1 C

8.9 C

9.1 C

9.9 C

282 W/m

0.00 mm

10:45

10.2 C

1022.2 hpa

70 %

8.0 km/h aus 96

17.7 km/h aus SE

5.0 C

9.1 C

9.3 C

10.0 C

286 W/m

0.00 mm

10:50

10.4 C

1022.2 hpa

69 %

3.2 km/h aus 84

16.1 km/h aus ESE

4.9 C

10.1 C

10.4 C

10.1 C

290 W/m

0.00 mm

10:55

10.6 C

1022.2 hpa

70 %

4.8 km/h aus 114

14.5 km/h aus ESE

5.3 C

10.2 C

10.4 C

10.3 C

292 W/m

0.00 mm

11:00

10.6 C

1022.0 hpa

70 %

3.2 km/h aus 114

14.5 km/h aus ESE

5.4 C

10.3 C

10.6 C

10.3 C

293 W/m

0.00 mm

11:05

10.6 C

1022.0 hpa

68 %

3.2 km/h aus 116

11.3 km/h aus SE

4.9 C

10.3 C

10.6 C

10.3 C

296 W/m

0.00 mm

11:10

10.8 C

1022.0 hpa

69 %

1.6 km/h aus 117

11.3 km/h aus ESE

5.3 C

10.4 C

10.8 C

10.4 C

297 W/m

0.00 mm

11:15

10.8 C

1021.9 hpa

69 %

4.8 km/h aus 114

14.5 km/h aus SE

5.4 C

10.4 C

10.8 C

10.5 C

297 W/m

0.00 mm

11:20

10.8 C

1021.9 hpa

69 %

8.0 km/h aus 107

17.7 km/h aus SE

5.4 C

9.7 C

10.0 C

10.5 C

298 W/m

0.00 mm

11:25

10.8 C

1021.9 hpa

69 %

8.0 km/h aus 101

19.3 km/h aus SE

5.4 C

9.7 C

10.0 C

10.5 C

301 W/m

0.00 mm

11:30

11.0 C

1021.8 hpa

69 %

6.4 km/h aus 108

19.3 km/h aus SE

5.5 C

10.2 C

10.6 C

10.7 C

303 W/m

0.00 mm

11:35

11.1 C

1021.8 hpa

69 %

6.4 km/h aus 113

16.1 km/h aus SE

5.6 C

10.3 C

10.7 C

10.8 C

306 W/m

0.00 mm

11:40

11.3 C

1021.8 hpa

70 %

3.2 km/h aus 113

12.9 km/h aus ESE

6.0 C

10.9 C

11.3 C

10.9 C

310 W/m

0.00 mm

11:45

11.3 C

1021.8 hpa

69 %

3.2 km/h aus 111

11.3 km/h aus SE

5.8 C

10.9 C

11.3 C

10.9 C

310 W/m

0.00 mm

11:50

11.6 C

1021.8 hpa

69 %

3.2 km/h aus 112

14.5 km/h aus ESE

6.1 C

11.2 C

11.6 C

11.2 C

311 W/m

0.00 mm

11:55

11.7 C

1021.8 hpa

70 %

3.2 km/h aus 118

14.5 km/h aus SE

6.4 C

11.3 C

11.7 C

11.3 C

313 W/m

0.00 mm

12:00

11.9 C

1021.7 hpa

69 %

1.6 km/h aus 117

4.8 km/h aus SE

6.4 C

11.5 C

11.9 C

11.5 C

312 W/m

0.00 mm

12:05

12.1 C

1021.7 hpa

67 %

1.6 km/h aus 117

4.8 km/h aus ESE

6.2 C

11.6 C

12.1 C

11.6 C

313 W/m

0.00 mm

12:10

12.2 C

1021.7 hpa

68 %

1.6 km/h aus 113

3.2 km/h aus SE

6.5 C

11.8 C

12.2 C

11.8 C

312 W/m

0.00 mm

12:15

12.4 C

1021.4 hpa

66 %

1.6 km/h aus 115

6.4 km/h aus ESE

6.3 C

11.9 C

12.4 C

11.9 C

313 W/m

0.00 mm

12:20

12.4 C

1021.4 hpa

64 %

1.6 km/h aus 117

8.0 km/h aus E

5.8 C

11.9 C

12.4 C

11.9 C

313 W/m

0.00 mm

12:25

12.5 C

1021.4 hpa

66 %

1.6 km/h aus 117

6.4 km/h aus E

6.3 C

12.0 C

12.5 C

12.0 C

314 W/m

0.00 mm

12:30

12.6 C

1021.3 hpa

65 %

3.2 km/h aus 116

9.7 km/h aus SE

6.2 C

12.1 C

12.6 C

12.1 C

310 W/m

0.00 mm

12:35

12.8 C

1021.3 hpa

67 %

1.6 km/h aus 113

9.7 km/h aus SE

6.9 C

12.3 C

12.8 C

12.3 C

308 W/m

0.00 mm

12:40

13.0 C

1021.3 hpa

66 %

1.6 km/h aus 116

4.8 km/h aus ESE

6.8 C

12.4 C

13.0 C

12.4 C

305 W/m

0.00 mm

12:45

12.9 C

1021.3 hpa

64 %

0.0 km/h aus 117

3.2 km/h aus E

6.2 C

12.3 C

12.9 C

12.3 C

301 W/m

0.00 mm

12:50

13.1 C

1021.3 hpa

65 %

0.0 km/h aus 116

3.2 km/h aus ESE

6.6 C

12.5 C

13.1 C

12.5 C

296 W/m

0.00 mm

12:55

13.1 C

1021.3 hpa

65 %

1.6 km/h aus 115

4.8 km/h aus SE

6.6 C

12.5 C

13.1 C

12.5 C

293 W/m

0.00 mm

13:00

13.2 C

1021.3 hpa

64 %

1.6 km/h aus 116

1.6 km/h aus SE

6.6 C

12.6 C

13.2 C

12.6 C

289 W/m

0.00 mm

13:05

13.2 C

1021.3 hpa

66 %

1.6 km/h aus 117

3.2 km/h aus SSE

7.0 C

12.7 C

13.2 C

12.7 C

284 W/m

0.00 mm

13:10

13.2 C

1021.3 hpa

64 %

1.6 km/h aus 116

3.2 km/h aus SE

6.5 C

12.6 C

13.2 C

12.6 C

278 W/m

0.00 mm

13:15

13.1 C

1021.3 hpa

63 %

0.0 km/h aus 117

3.2 km/h aus SE

6.2 C

12.4 C

13.1 C

12.4 C

274 W/m

0.00 mm

13:20

13.2 C

1021.3 hpa

65 %

0.0 km/h aus 114

3.2 km/h aus SE

6.7 C

12.6 C

13.2 C

12.6 C

270 W/m

0.00 mm

13:25

13.2 C

1021.3 hpa

65 %

1.6 km/h aus 115

3.2 km/h aus ESE

6.7 C

12.6 C

13.2 C

12.6 C

264 W/m

0.00 mm

13:30

13.2 C

1021.1 hpa

64 %

0.0 km/h aus 117

1.6 km/h aus SE

6.5 C

12.6 C

13.2 C

12.6 C

256 W/m

0.00 mm

13:35

13.3 C

1021.1 hpa

65 %

0.0 km/h aus 116

3.2 km/h aus SE

6.9 C

12.8 C

13.3 C

12.8 C

251 W/m

0.00 mm

13:40

13.4 C

1021.1 hpa

65 %

1.6 km/h aus 116

4.8 km/h aus SE

7.0 C

12.9 C

13.4 C

12.9 C

245 W/m

0.00 mm

13:45

13.4 C

1020.9 hpa

63 %

0.0 km/h aus 114

1.6 km/h aus SE

6.5 C

12.8 C

13.4 C

12.8 C

240 W/m

0.00 mm

13:50

13.4 C

1020.9 hpa

64 %

0.0 km/h aus 117

3.2 km/h aus SE

6.7 C

12.8 C

13.4 C

12.8 C

234 W/m

0.00 mm

13:55

13.4 C

1020.9 hpa

65 %

0.0 km/h aus 117

3.2 km/h aus SE

7.0 C

12.9 C

13.4 C

12.9 C

225 W/m

0.00 mm

14:00

13.4 C

1020.9 hpa

64 %

1.6 km/h aus 115

3.2 km/h aus SE

6.8 C

12.8 C

13.4 C

12.8 C

217 W/m

0.00 mm

14:05

13.6 C

1020.9 hpa

66 %

0.0 km/h aus 115

1.6 km/h aus ESE

7.3 C

13.0 C

13.6 C

13.0 C

206 W/m

0.00 mm

14:10

13.6 C

1020.9 hpa

64 %

0.0 km/h aus 115

3.2 km/h aus ESE

6.9 C

12.9 C

13.6 C

12.9 C

199 W/m

0.00 mm

14:15

13.6 C

1020.8 hpa

65 %

1.6 km/h aus 117

3.2 km/h aus E

7.2 C

13.1 C

13.6 C

13.1 C

187 W/m

0.00 mm

14:20

13.6 C

1020.8 hpa

65 %

0.0 km/h aus 117

3.2 km/h aus E

7.1 C

13.0 C

13.6 C

13.0 C

170 W/m

0.00 mm

14:25

13.6 C

1020.8 hpa

65 %

1.6 km/h aus 115

4.8 km/h aus E

7.1 C

13.0 C

13.6 C

13.0 C

163 W/m

0.00 mm

14:30

13.6 C

1020.8 hpa

65 %

1.6 km/h aus 113

4.8 km/h aus E

7.1 C

13.0 C

13.6 C

13.0 C

141 W/m

0.00 mm

14:35

13.6 C

1020.8 hpa

66 %

1.6 km/h aus 117

3.2 km/h aus E

7.4 C

13.1 C

13.6 C

13.1 C

102 W/m

0.00 mm

14:40

13.6 C

1020.8 hpa

66 %

1.6 km/h aus 116

4.8 km/h aus ESE

7.4 C

13.1 C

13.6 C

13.1 C

124 W/m

0.00 mm

14:45

13.6 C

1020.8 hpa

67 %

1.6 km/h aus 116

3.2 km/h aus ESE

7.5 C

13.1 C

13.6 C

13.1 C

132 W/m

0.00 mm

14:50

13.6 C

1020.8 hpa

67 %

0.0 km/h aus 116

4.8 km/h aus ESE

7.5 C

13.1 C

13.6 C

13.1 C

88 W/m

0.00 mm

14:55

13.6 C

1020.8 hpa

66 %

1.6 km/h aus 113

4.8 km/h aus ESE

7.3 C

13.0 C

13.6 C

13.0 C

80 W/m

0.00 mm

15:00

13.5 C

1020.5 hpa

68 %

1.6 km/h aus 117

3.2 km/h aus ESE

7.7 C

13.0 C

13.5 C

13.0 C

77 W/m

0.00 mm

15:05

13.4 C

1020.5 hpa

67 %

1.6 km/h aus 118

4.8 km/h aus E

7.4 C

12.9 C

13.4 C

12.9 C

74 W/m

0.00 mm

15:10

13.5 C

1020.5 hpa

69 %

0.0 km/h aus 117

1.6 km/h aus E

7.9 C

13.1 C

13.5 C

13.1 C

70 W/m

0.00 mm

15:15

13.4 C

1020.4 hpa

69 %

0.0 km/h aus 115

1.6 km/h aus ESE

7.8 C

12.9 C

13.4 C

12.9 C

66 W/m

0.00 mm

15:20

13.3 C

1020.4 hpa

68 %

0.0 km/h aus 115

3.2 km/h aus E

7.5 C

12.8 C

13.3 C

12.8 C

62 W/m

0.00 mm

15:25

13.2 C

1020.4 hpa

69 %

1.6 km/h aus 117

3.2 km/h aus E

7.7 C

12.8 C

13.2 C

12.8 C

58 W/m

0.00 mm

15:30

13.1 C

1020.5 hpa

71 %

0.0 km/h aus 117

3.2 km/h aus ESE

7.9 C

12.7 C

13.1 C

12.7 C

54 W/m

0.00 mm

15:35

12.9 C

1020.5 hpa

73 %

1.6 km/h aus 117

3.2 km/h aus ESE

8.2 C

12.6 C

12.9 C

12.6 C

49 W/m

0.00 mm

15:40

12.7 C

1020.5 hpa

76 %

1.6 km/h aus 114

3.2 km/h aus SE

8.6 C

12.4 C

12.7 C

12.4 C

46 W/m

0.00 mm

15:45

12.6 C

1020.3 hpa

77 %

1.6 km/h aus 114

4.8 km/h aus SE

8.6 C

12.3 C

12.6 C

12.3 C

43 W/m

0.00 mm

15:50

12.6 C

1020.3 hpa

77 %

0.0 km/h aus 117

3.2 km/h aus SE

8.7 C

12.4 C

12.6 C

12.4 C

39 W/m

0.00 mm

15:55

12.7 C

1020.3 hpa

76 %

0.0 km/h aus 117

0.0 km/h aus ---

8.5 C

12.4 C

12.7 C

12.4 C

36 W/m

0.00 mm

16:00

12.6 C

1020.3 hpa

75 %

0.0 km/h aus 117

0.0 km/h aus ---

8.3 C

12.3 C

12.6 C

12.3 C

32 W/m

0.00 mm

16:05

12.5 C

1020.3 hpa

74 %

0.0 km/h aus 115

3.2 km/h aus ESE

8.0 C

12.2 C

12.5 C

12.2 C

28 W/m

0.00 mm

16:10

12.4 C

1020.3 hpa

74 %

0.0 km/h aus 116

3.2 km/h aus ESE

7.9 C

12.1 C

12.4 C

12.1 C

26 W/m

0.00 mm

16:15

12.2 C

1020.3 hpa

74 %

0.0 km/h aus 117

0.0 km/h aus ---

7.7 C

11.9 C

12.2 C

11.9 C

23 W/m

0.00 mm

16:20

12.1 C

1020.3 hpa

74 %

0.0 km/h aus 117

0.0 km/h aus ---

7.6 C

11.8 C

12.1 C

11.8 C

19 W/m

0.00 mm

16:25

11.9 C

1020.3 hpa

73 %

0.0 km/h aus 117

1.6 km/h aus ESE

7.3 C

11.6 C

11.9 C

11.6 C

12 W/m

0.00 mm

16:30

11.8 C

1020.2 hpa

73 %

0.0 km/h aus 116

1.6 km/h aus ESE

7.1 C

11.4 C

11.8 C

11.4 C

10 W/m

0.00 mm

16:35

11.6 C

1020.2 hpa

74 %

1.6 km/h aus 114

3.2 km/h aus ESE

7.1 C

11.3 C

11.6 C

11.3 C

7 W/m

0.00 mm

16:40

11.5 C

1020.2 hpa

74 %

1.6 km/h aus 117

4.8 km/h aus E

7.0 C

11.2 C

11.5 C

11.2 C

6 W/m

0.00 mm

16:45

11.3 C

1020.2 hpa

74 %

0.0 km/h aus 117

1.6 km/h aus E

6.9 C

11.1 C

11.3 C

11.1 C

3 W/m

0.00 mm

16:50

11.1 C

1020.2 hpa

74 %

0.0 km/h aus 117

0.0 km/h aus ---

6.6 C

10.9 C

11.1 C

10.9 C

0 W/m

0.00 mm

16:55

10.9 C

1020.2 hpa

74 %

0.0 km/h aus 117

0.0 km/h aus ---

6.5 C

10.7 C

10.9 C

10.7 C

0 W/m

0.00 mm

17:00

10.7 C

1020.2 hpa

74 %

0.0 km/h aus 114

1.6 km/h aus E

6.3 C

10.5 C

10.7 C

10.5 C

0 W/m

0.00 mm

17:05

10.6 C

1020.2 hpa

74 %

1.6 km/h aus 114

1.6 km/h aus E

6.1 C

10.4 C

10.6 C

10.4 C

0 W/m

0.00 mm

17:10

10.3 C

1020.2 hpa

75 %

1.6 km/h aus 116

3.2 km/h aus E

6.1 C

10.2 C

10.3 C

10.2 C

0 W/m

0.00 mm

17:15

10.2 C

1020.2 hpa

75 %

1.6 km/h aus 116

3.2 km/h aus E

5.9 C

10.1 C

10.2 C

10.1 C

0 W/m

0.00 mm

17:20

10.1 C

1020.2 hpa

76 %

1.6 km/h aus 117

4.8 km/h aus E

6.0 C

9.9 C

10.1 C

9.9 C

0 W/m

0.00 mm

17:25

9.9 C

1020.2 hpa

76 %

1.6 km/h aus 117

3.2 km/h aus E

5.9 C

9.8 C

9.9 C

9.8 C

0 W/m

0.00 mm

17:30

9.8 C

1020.2 hpa

76 %

1.6 km/h aus 112

3.2 km/h aus E

5.7 C

9.7 C

9.8 C

9.7 C

0 W/m

0.00 mm

17:35

9.7 C

1020.2 hpa

76 %

1.6 km/h aus 113

3.2 km/h aus ESE

5.6 C

9.6 C

9.7 C

9.6 C

0 W/m

0.00 mm

17:40

9.5 C

1020.2 hpa

76 %

1.6 km/h aus 116

3.2 km/h aus ESE

5.5 C

9.3 C

9.5 C

9.3 C

0 W/m

0.00 mm

17:45

9.3 C

1020.2 hpa

76 %

1.6 km/h aus 116

3.2 km/h aus ESE

5.3 C

9.2 C

9.3 C

9.2 C

0 W/m

0.00 mm

17:50

9.2 C

1020.2 hpa

76 %

0.0 km/h aus 117

1.6 km/h aus ESE

5.2 C

9.0 C

9.2 C

9.0 C

0 W/m

0.00 mm

17:55

9.0 C

1020.2 hpa

77 %

0.0 km/h aus 116

1.6 km/h aus ESE

5.2 C

8.9 C

9.0 C

8.9 C

0 W/m

0.00 mm

18:00

8.9 C

1020.2 hpa

77 %

0.0 km/h aus 112

1.6 km/h aus ESE

5.1 C

8.8 C

8.9 C

8.8 C

0 W/m

0.00 mm

18:05

8.7 C

1020.2 hpa

77 %

0.0 km/h aus 116

3.2 km/h aus ESE

4.9 C

8.6 C

8.7 C

8.6 C

0 W/m

0.00 mm

18:10

8.5 C

1020.2 hpa

77 %

0.0 km/h aus 117

3.2 km/h aus ESE

4.7 C

8.4 C

8.5 C

8.4 C

0 W/m

0.00 mm

18:15

8.4 C

1020.3 hpa

77 %

0.0 km/h aus 115

1.6 km/h aus ESE

4.6 C

8.2 C

8.4 C

8.2 C

0 W/m

0.00 mm

18:20

8.3 C

1020.3 hpa

78 %

0.0 km/h aus 118

1.6 km/h aus ESE

4.7 C

8.2 C

8.3 C

8.2 C

0 W/m

0.00 mm

18:25

8.2 C

1020.3 hpa

78 %

0.0 km/h aus 116

3.2 km/h aus ESE

4.6 C

8.1 C

8.2 C

8.1 C

0 W/m

0.00 mm

18:30

8.2 C

1020.3 hpa

79 %

0.0 km/h aus 114

1.6 km/h aus ESE

4.7 C

8.1 C

8.2 C

8.1 C

0 W/m

0.00 mm

18:35

8.1 C

1020.3 hpa

79 %

0.0 km/h aus 117

0.0 km/h aus ---

4.6 C

7.9 C

8.1 C

7.9 C

0 W/m

0.00 mm

18:40

7.9 C

1020.3 hpa

78 %

0.0 km/h aus 117

0.0 km/h aus ---

4.3 C

7.8 C

7.9 C

7.8 C

0 W/m

0.00 mm

18:45

7.8 C

1020.3 hpa

79 %

0.0 km/h aus 117

0.0 km/h aus ---

4.4 C

7.7 C

7.8 C

7.7 C

0 W/m

0.00 mm

18:50

7.8 C

1020.3 hpa

79 %

0.0 km/h aus 117

0.0 km/h aus ---

4.4 C

7.7 C

7.8 C

7.7 C

0 W/m

0.00 mm

18:55

7.7 C

1020.3 hpa

79 %

0.0 km/h aus 116

0.0 km/h aus ---

4.3 C

7.6 C

7.7 C

7.6 C

0 W/m

0.00 mm

19:00

7.7 C

1020.4 hpa

80 %

0.0 km/h aus 113

1.6 km/h aus ESE

4.5 C

7.6 C

7.7 C

7.6 C

0 W/m

0.00 mm

19:05

7.7 C

1020.4 hpa

81 %

0.0 km/h aus 115

0.0 km/h aus ---

4.6 C

7.6 C

7.7 C

7.6 C

0 W/m

0.00 mm

19:10

7.6 C

1020.4 hpa

81 %

0.0 km/h aus 117

0.0 km/h aus ---

4.6 C

7.5 C

7.6 C

7.5 C

0 W/m

0.00 mm

19:15

7.6 C

1020.3 hpa

81 %

0.0 km/h aus 116

0.0 km/h aus ---

4.5 C

7.4 C

7.6 C

7.4 C

0 W/m

0.00 mm

19:20

7.4 C

1020.3 hpa

81 %

0.0 km/h aus 117

1.6 km/h aus ESE

4.4 C

7.3 C

7.4 C

7.3 C

0 W/m

0.00 mm

19:25

7.3 C

1020.3 hpa

81 %

0.0 km/h aus 118

1.6 km/h aus ESE

4.2 C

7.2 C

7.3 C

7.2 C

0 W/m

0.00 mm

19:30

7.2 C

1020.3 hpa

81 %

0.0 km/h aus 113

1.6 km/h aus ESE

4.1 C

7.1 C

7.2 C

7.1 C

0 W/m

0.00 mm

19:35

7.1 C

1020.3 hpa

81 %

0.0 km/h aus 115

3.2 km/h aus ESE

4.1 C

7.0 C

7.1 C

7.0 C

0 W/m

0.00 mm

19:40

7.1 C

1020.3 hpa

81 %

0.0 km/h aus 117

0.0 km/h aus ---

4.0 C

6.9 C

7.1 C

6.9 C

0 W/m

0.00 mm

19:45

7.0 C

1020.3 hpa

82 %

0.0 km/h aus 117

1.6 km/h aus ESE

4.1 C

6.9 C

7.0 C

6.9 C

0 W/m

0.00 mm

19:50

6.9 C

1020.3 hpa

82 %

0.0 km/h aus 117

3.2 km/h aus ESE

4.0 C

6.8 C

6.9 C

6.8 C

0 W/m

0.00 mm

19:55

6.8 C

1020.3 hpa

82 %

1.6 km/h aus 117

1.6 km/h aus ESE

3.9 C

6.7 C

6.8 C

6.7 C

0 W/m

0.00 mm

20:00

6.7 C

1020.3 hpa

82 %

0.0 km/h aus 115

1.6 km/h aus ESE

3.8 C

6.6 C

6.7 C

6.6 C

0 W/m

0.00 mm

20:05

6.7 C

1020.3 hpa

82 %

0.0 km/h aus 114

1.6 km/h aus ESE

3.8 C

6.6 C

6.7 C

6.6 C

0 W/m

0.00 mm

20:10

6.6 C

1020.3 hpa

83 %

0.0 km/h aus 116

0.0 km/h aus ---

3.9 C

6.6 C

6.6 C

6.6 C

0 W/m

0.00 mm

20:15

6.6 C

1020.3 hpa

83 %

0.0 km/h aus 117

0.0 km/h aus ---

3.9 C

6.5 C

6.6 C

6.5 C

0 W/m

0.00 mm

20:20

6.5 C

1020.3 hpa

83 %

0.0 km/h aus 117

3.2 km/h aus ESE

3.8 C

6.4 C

6.5 C

6.4 C

0 W/m

0.00 mm

20:25

6.6 C

1020.3 hpa

84 %

0.0 km/h aus 117

1.6 km/h aus ESE

4.0 C

6.5 C

6.6 C

6.5 C

0 W/m

0.00 mm

20:30

6.5 C

1020.3 hpa

84 %

0.0 km/h aus 117

1.6 km/h aus ESE

4.0 C

6.4 C

6.5 C

6.4 C

0 W/m

0.00 mm

20:35

6.4 C

1020.3 hpa

84 %

0.0 km/h aus 113

0.0 km/h aus ---

3.9 C

6.4 C

6.4 C

6.4 C

0 W/m

0.00 mm

20:40

6.4 C

1020.3 hpa

84 %

0.0 km/h aus 116

0.0 km/h aus ---

3.9 C

6.3 C

6.4 C

6.3 C

0 W/m

0.00 mm

20:45

6.3 C

1020.3 hpa

84 %

0.0 km/h aus 117

0.0 km/h aus ---

3.8 C

6.2 C

6.3 C

6.2 C

0 W/m

0.00 mm

20:50

6.2 C

1020.3 hpa

84 %

0.0 km/h aus 117

1.6 km/h aus ESE

3.7 C

6.2 C

6.2 C

6.2 C

0 W/m

0.00 mm

20:55

6.2 C

1020.3 hpa

84 %

0.0 km/h aus 117

1.6 km/h aus ESE

3.7 C

6.2 C

6.2 C

6.2 C

0 W/m

0.00 mm

21:00

6.2 C

1020.3 hpa

84 %

0.0 km/h aus 115

3.2 km/h aus ESE

3.7 C

6.1 C

6.2 C

6.1 C

0 W/m

0.00 mm

21:05

6.1 C

1020.3 hpa

84 %

1.6 km/h aus 115

3.2 km/h aus ESE

3.6 C

6.1 C

6.1 C

6.1 C

0 W/m

0.00 mm

21:10

6.0 C

1020.3 hpa

84 %

0.0 km/h aus 113

1.6 km/h aus ESE

3.5 C

5.9 C

6.0 C

5.9 C

0 W/m

0.00 mm

21:15

6.0 C

1020.3 hpa

85 %

0.0 km/h aus 117

1.6 km/h aus ESE

3.7 C

5.9 C

6.0 C

5.9 C

0 W/m

0.00 mm

21:20

5.9 C

1020.3 hpa

85 %

0.0 km/h aus 117

0.0 km/h aus ---

3.6 C

5.9 C

5.9 C

5.9 C

0 W/m

0.00 mm

21:25

5.9 C

1020.3 hpa

85 %

0.0 km/h aus 117

0.0 km/h aus ---

3.6 C

5.8 C

5.9 C

5.8 C

0 W/m

0.00 mm

21:30

5.8 C

1020.3 hpa

85 %

0.0 km/h aus 117

0.0 km/h aus ---

3.5 C

5.8 C

5.8 C

5.8 C

0 W/m

0.00 mm

21:35

5.8 C

1020.3 hpa

85 %

0.0 km/h aus 116

0.0 km/h aus ---

3.5 C

5.7 C

5.8 C

5.7 C

0 W/m

0.00 mm

21:40

5.7 C

1020.3 hpa

85 %

0.0 km/h aus 114

0.0 km/h aus ---

3.3 C

5.6 C

5.7 C

5.6 C

0 W/m

0.00 mm

21:45

5.6 C

1020.2 hpa

85 %

0.0 km/h aus 116

0.0 km/h aus ---

3.3 C

5.5 C

5.6 C

5.5 C

0 W/m

0.00 mm

21:50

5.6 C

1020.2 hpa

85 %

0.0 km/h aus 115

0.0 km/h aus ---

3.3 C

5.5 C

5.6 C

5.5 C

0 W/m

0.00 mm

21:55

5.7 C

1020.2 hpa

86 %

0.0 km/h aus 117

1.6 km/h aus ESE

3.5 C

5.6 C

5.7 C

5.6 C

0 W/m

0.00 mm

22:00

5.7 C

1019.9 hpa

86 %

0.0 km/h aus 117

1.6 km/h aus ESE

3.5 C

5.6 C

5.7 C

5.6 C

0 W/m

0.00 mm

22:05

5.7 C

1019.9 hpa

87 %

0.0 km/h aus 116

1.6 km/h aus ESE

3.7 C

5.6 C

5.7 C

5.6 C

0 W/m

0.00 mm

22:10

5.7 C

1019.9 hpa

87 %

1.6 km/h aus 114

4.8 km/h aus ESE

3.7 C

5.6 C

5.7 C

5.6 C

0 W/m

0.00 mm

22:15

5.7 C

1020.0 hpa

87 %

1.6 km/h aus 115

4.8 km/h aus ESE

3.7 C

5.6 C

5.7 C

5.6 C

0 W/m

0.00 mm

22:20

5.7 C

1020.0 hpa

87 %

0.0 km/h aus 116

0.0 km/h aus ---

3.7 C

5.6 C

5.7 C

5.6 C

0 W/m

0.00 mm

22:25

5.7 C

1020.0 hpa

87 %

0.0 km/h aus 117

0.0 km/h aus ---

3.7 C

5.6 C

5.7 C

5.6 C

0 W/m

0.00 mm

22:30

5.7 C

1020.0 hpa

88 %

0.0 km/h aus 116

0.0 km/h aus ---

3.8 C

5.6 C

5.7 C

5.6 C

0 W/m

0.00 mm

22:35

5.6 C

1020.0 hpa

88 %

0.0 km/h aus 117

1.6 km/h aus ESE

3.8 C

5.6 C

5.6 C

5.6 C

0 W/m

0.00 mm

22:40

5.6 C

1020.0 hpa

88 %

0.0 km/h aus 118

0.0 km/h aus ---

3.8 C

5.6 C

5.6 C

5.6 C

0 W/m

0.00 mm

22:45

5.5 C

1019.9 hpa

88 %

0.0 km/h aus 113

0.0 km/h aus ---

3.7 C

5.4 C

5.5 C

5.4 C

0 W/m

0.00 mm

22:50

5.5 C

1019.9 hpa

88 %

0.0 km/h aus 114

0.0 km/h aus ---

3.7 C

5.4 C

5.5 C

5.4 C

0 W/m

0.00 mm

22:55

5.4 C

1019.9 hpa

88 %

0.0 km/h aus 116

0.0 km/h aus ---

3.6 C

5.4 C

5.4 C

5.4 C

0 W/m

0.00 mm

23:00

5.4 C

1019.8 hpa

88 %

0.0 km/h aus 116

0.0 km/h aus ---

3.6 C

5.3 C

5.4 C

5.3 C

0 W/m

0.00 mm

23:05

5.3 C

1019.8 hpa

88 %

0.0 km/h aus 117

0.0 km/h aus ---

3.5 C

5.3 C

5.3 C

5.3 C

0 W/m

0.00 mm

23:10

5.3 C

1019.8 hpa

88 %

0.0 km/h aus 116

1.6 km/h aus ESE

3.5 C

5.3 C

5.3 C

5.3 C

0 W/m

0.00 mm

23:15

5.3 C

1019.8 hpa

88 %

0.0 km/h aus 114

1.6 km/h aus ESE

3.5 C

5.2 C

5.3 C

5.2 C

0 W/m

0.00 mm

23:20

5.3 C

1019.8 hpa

88 %

0.0 km/h aus 114

0.0 km/h aus ---

3.5 C

5.2 C

5.3 C

5.2 C

0 W/m

0.00 mm

23:25

5.2 C

1019.8 hpa

88 %

0.0 km/h aus 116

0.0 km/h aus ---

3.4 C

5.2 C

5.2 C

5.2 C

0 W/m

0.00 mm

23:30

5.2 C

1019.8 hpa

88 %

0.0 km/h aus 117

0.0 km/h aus ---

3.3 C

5.1 C

5.2 C

5.1 C

0 W/m

0.00 mm

23:35

5.1 C

1019.8 hpa

88 %

0.0 km/h aus 116

0.0 km/h aus ---

3.3 C

5.1 C

5.1 C

5.1 C

0 W/m

0.00 mm

23:40

5.0 C

1019.8 hpa

88 %

0.0 km/h aus 117

0.0 km/h aus ---

3.2 C

4.9 C

5.0 C

4.9 C

0 W/m

0.00 mm

23:45

5.0 C

1019.7 hpa

88 %

0.0 km/h aus 118

0.0 km/h aus ---

3.2 C

4.9 C

5.0 C

4.9 C

0 W/m

0.00 mm

23:50

4.9 C

1019.7 hpa

88 %

0.0 km/h aus 115

0.0 km/h aus ---

3.1 C

4.9 C

4.9 C

4.9 C

0 W/m

0.00 mm

23:55

4.9 C

1019.7 hpa

88 %

0.0 km/h aus 114

1.6 km/h aus ESE

3.1 C

4.8 C

4.9 C

4.8 C

0 W/m

0.00 mm